Regional Weather Roundup
Issued by NWS

Home | Current Version | Previous Version | Graphics & Text | Print | Product List | Glossary On
Versions: 1 2 3 4 5 6 7 8 9 10 11 12 13 14 15 16 17 18 19 20 21 22 23 24 25 26 27 28 29 30 31 32 33 34 35 36 37 38 39 40 41 42 43 44 45 46 47 48 49 50
000
ASUS44 KMEG 190000
RWRTN
TENNESSEE HOURLY STATE WEATHER ROUNDUP
NATIONAL WEATHER SERVICE MEMPHIS TN
600 PM CST THU DEC 18 2014

TNZ002-004-019-021-049-052-054-088>092-190100-
WEST TENNESSEE

CITY           SKY/WX    TMP DP  RH WIND       PRES   REMARKS
MEMPHIS INTL   CLOUDY    45  36  70 NE5       30.20R
NWS MEMPHIS      N/A     44 N/A N/A MISG        N/A
JACKSON        CLOUDY    42  35  76 NE7       30.21R
DYERSBURG      CLOUDY    39  27  60 NE3       30.23R
UNION CITY     CLOUDY    36  32  87 NE5       30.21R WCI  32
PARIS          CLOUDY    34  30  86 E5        30.21S WCI  30
LEXINGTON      CLOUDY    39  34  81 N3        30.20R
SAVANNAH       CLOUDY    43  36  75 NE6       30.20R
$$

TNZ008-025-027-028-033-062-065-066-190100-
NORTH MIDDLE TENNESSEE

CITY           SKY/WX    TMP DP  RH WIND       PRES   REMARKS
NASHVILLE      CLOUDY    38  31  76 NE3       30.23R
CLARKSVILLE    CLOUDY    35  30  82 CALM      30.22F
COOKEVILLE     CLOUDY    37  34  87 CALM      30.17F
CROSSVILLE     CLOUDY    38  29  70 N3        30.16R
$$

TNZ061-075-076-078-094-096-097-190100-
SOUTH MIDDLE TENNESSEE

CITY           SKY/WX    TMP DP  RH WIND       PRES   REMARKS
FAYETTEVILLE   CLOUDY    39  34  81 MISG      30.18R
TULLAHOMA      CLOUDY    37  34  87 N6        30.19R WCI  33
WINCHESTER     CLOUDY    41  36  81 N6        30.19R
SHELBYVILLE    CLOUDY    37  34  87 NE3       30.21R
$$

TNZ017-018-042-046-047-190100-
NORTHEAST TENNESSEE

CITY           SKY/WX    TMP DP  RH WIND       PRES   REMARKS
TRI CITIES     CLOUDY    41  29  62 CALM      30.15R
ELIZABETHTON   CLOUDY    37  27  65 CALM      30.14R
$$

TNZ012-013-036-069-073-074-190100-
CENTRAL EAST TENNESSEE

CITY           SKY/WX    TMP DP  RH WIND       PRES   REMARKS
KNOXVILLE      CLOUDY    43  31  62 CALM      30.16S
OAK RIDGE      CLOUDY    43  29  57 E5        30.18S
GATLINBURG     CLOUDY    41  30  65 CALM      30.16R
$$

TNZ083-085-099-190100-
SOUTHEAST TENNESSEE

CITY           SKY/WX    TMP DP  RH WIND       PRES   REMARKS
CHATTANOOGA    CLOUDY    45  34  65 NE3       30.17R
$$

SKY/WX REPORTED AS FAIR MEANS FEW OR NO CLOUDS BELOW
12 THOUSAND FEET.




USA.gov is the U.S. government's official web portal to all federal, state and local government web resources and services.